Temperature
24 23 22 21 21 21 20 20 20 19 19 19 19 19 19 19 18 18 18 18 18 18 18 18 18 18 18 18 18 18 18 18 18 18 19 19 19 18 18 18 18 18 18
24 23 22 22 21 21 20 20 20 20 20 19 19 19 19 19 19 18 18 18 18 18 18 18 18 18 18 18 18 18 18 18 18 18 19 19 20 19 19 18 18 18 18
25 23 23 22 22 21 21 21 20 20 20 19 19 19 19 19 19 19 19 19 18 18 18 18 18 18 18 18 18 18 18 18 18 18 19 20 20 19 19 18 18 18 18
25 24 23 23 22 22 21 21 21 20 20 20 19 19 19 19 19 19 19 19 18 18 18 18 18 18 18 18 18 18 18 18 18 18 18 18 18 19 19 19 19 18 18
26 25 24 23 23 22 21 21 21 21 20 20 20 19 19 19 19 19 19 19 19 19 19 18 18 18 18 18 18 18 18 18 18 18 18 18 18 18 19 19 19 19 18
26 25 24 23 23 22 22 21 21 21 21 20 20 20 19 19 19 19 19 19 19 19 19 18 18 18 18 18 18 18 18 18 18 18 18 18 18 19 19 19 19 19 19
26 25 24 24 23 22 22 21 21 21 21 20 20 20 20 19 19 19 19 19 19 19 19 19 19 18 18 18 18 18 18 18 18 18 18 18 18 18 18 18 19 18 19
26 25 24 24 23 22 22 21 21 21 21 20 20 20 20 19 19 19 19 19 19 19 19 19 19 18 18 18 18 18 18 18 18 18 18 18 18 18 18 18 18 18 19
26 25 25 24 23 23 22 22 21 21 21 20 20 20 20 20 19 19 19 19 19 19 19 19 19 19 18 18 18 18 18 18 18 18 18 18 18 17 17 17 17 18 18
26 25 25 24 23 23 22 21 21 21 21 20 20 20 20 20 20 19 19 19 19 19 19 19 19 18 18 18 18 18 18 18 18 18 18 18 17 17 17 17 17 17 17
26 25 24 24 23 23 22 21 21 21 21 20 20 20 20 20 19 19 19 19 19 19 19 19 18 18 18 18 18 18 18 18 17 17 17 17 17 17 17 17 17 17 17
26 25 24 23 23 22 22 21 21 21 20 20 20 20 20 19 19 19 19 19 19 19 19 19 18 18 18 18 18 18 18 17 17 17 17 17 17 17 17 17 17 17 17
25 24 24 23 22 22 22 21 21 21 20 20 20 20 19 19 19 19 19 19 19 19 19 18 18 18 18 18 18 18 18 17 17 17 17 17 17 16 16 16 16 16 16
24 24 23 23 22 21 21 21 21 20 20 20 20 19 19 19 19 19 19 19 19 19 19 18 18 18 18 18 18 17 17 17 17 17 17 17 16 16 16 16 16 16 16
23 23 22 22 22 21 21 20 20 20 20 20 20 19 19 19 19 19 19 19 18 18 18 18 18 18 18 18 18 17 17 17 17 17 16 16 16 16 16 16 16 16 16
23 22 22 21 21 21 20 20 20 20 20 19 19 19 19 19 19 19 19 19 18 18 18 18 18 18 17 18 17 17 17 17 17 16 16 16 16 16 16 16 16 16 15
22 21 21 21 20 20 20 20 20 20 20 19 19 19 19 19 19 19 18 18 18 18 18 18 17 17 17 17 17 17 17 17 16 16 16 16 16 16 15 16 16 16 15
21 21 21 21 20 20 20 20 20 19 19 19 19 19 19 19 19 18 18 18 18 17 17 17 17 17 17 17 17 17 16 16 16 16 16 15 15 15 15 15 14 14 15
20 20 20 20 20 20 20 19 19 19 19 19 19 18 18 18 18 18 18 18 17 17 17 17 17 16 17 16 16 16 16 16 16 16 15 15 15 15 15 14 14 14 14
19 19 20 19 19 19 19 19 19 18 18 18 18 18 18 18 18 18 18 17 17 17 17 16 16 16 16 16 16 16 16 15 15 15 15 15 15 14 14 14 13 13 13
19 19 19 19 19 19 18 18 18 18 18 18 18 18 18 18 18 17 17 17 17 17 16 16 16 16 16 16 16 16 15 15 15 15 14 14 14 14 14 13 13 13 13
18 18 18 18 18 18 18 18 18 18 17 17 17 17 17 17 17 17 17 16 16 16 16 16 15 15 15 15 15 15 15 15 14 14 14 14 14 14 13 13 13 13 13
18 18 18 17 17 17 17 17 18 17 17 17 17 17 17 17 16 16 16 16 16 15 15 15 15 15 15 15 15 15 14 14 14 14 13 13 13 13 13 13 12 12 12
17 17 17 17 17 17 17 17 17 17 17 17 16 16 16 16 16 15 15 15 15 15 15 15 15 15 15 15 14 14 14 14 13 13 13 12 12 12 12 12 12 11 11
16 16 16 17 17 17 17 17 16 16 16 16 16 16 16 15 15 15 15 15 15 15 15 15 14 14 14 14 14 14 13 13 13 12 12 12 11 11 11 11 11 11 11
16 16 16 16 16 16 16 16 16 16 16 16 15 15 15 15 15 15 15 14 14 14 14 14 14 13 13 13 13 13 13 13 12 12 11 11 11 11 11 11 11 10 10
Wind_Speed
10 10 10 9 9 8 8 8 7 7 6 4 4 4 3 3 3 3 3 3 3 3 2 1 2 1 1 1 1 1 2 1 1 1 1 2 3 2 2 2 2 2 3
11 11 11 10 10 9 9 9 8 8 8 6 4 3 2 3 3 2 3 3 3 3 3 2 2 2 2 2 1 1 1 1 1 1 1 1 2 3 2 2 3 2 3
12 13 12 12 11 11 10 9 9 8 8 7 5 4 4 3 4 3 3 3 3 3 3 3 3 2 3 2 2 2 2 1 1 1 2 1 1 1 2 1 1 2 2
12 13 13 13 12 12 11 10 10 9 8 8 7 7 5 4 3 3 2 3 3 3 3 3 3 3 2 2 3 2 2 3 2 2 1 2 2 2 1 2 1 2 2
12 13 13 13 12 12 11 11 10 10 10 9 8 7 6 4 3 3 3 3 3 3 3 3 3 3 3 2 2 2 3 3 3 2 2 2 2 3 3 2 2 2 2
11 12 12 12 12 12 11 11 11 10 10 10 9 8 7 5 4 4 3 4 3 3 3 3 3 3 2 3 3 3 4 3 3 3 3 3 2 2 3 4 4 3 2
10 11 12 13 12 12 12 11 11 10 10 10 9 8 7 7 6 5 5 4 3 3 3 2 2 2 3 3 3 4 3 4 4 4 3 3 3 3 3 4 4 4 3
9 11 11 12 12 12 12 11 11 11 11 10 9 8 8 6 5 6 4 4 3 2 3 3 3 3 3 3 4 4 4 3 4 4 4 4 3 3 4 4 5 5 4
9 10 10 11 11 12 12 12 11 10 10 10 9 8 8 6 5 5 5 4 3 3 3 3 3 3 3 3 4 3 3 3 4 4 4 4 3 3 3 4 4 5 5
8 9 9 10 10 11 11 11 11 11 10 9 8 7 7 7 6 5 5 4 3 3 3 4 3 3 3 4 4 3 3 4 3 3 3 4 3 3 3 4 4 4 5
6 8 8 8 9 10 10 11 10 10 10 9 8 7 7 7 7 6 5 5 4 4 4 4 4 4 3 4 4 4 4 4 4 3 4 4 4 4 3 3 4 4 4
5 7 8 8 8 9 9 10 9 9 9 9 9 8 7 7 7 6 6 5 5 5 5 5 4 4 4 4 4 5 5 5 4 4 4 4 3 4 4 4 4 4 4
4 6 7 7 7 7 8 8 8 8 8 8 8 8 8 7 7 7 6 6 6 5 5 5 5 4 4 4 4 4 4 5 4 4 4 4 4 4 4 5 5 5 5
4 5 6 6 6 7 7 7 8 8 8 8 8 8 8 7 7 7 6 6 6 6 5 5 5 5 4 4 4 4 4 4 4 4 4 4 4 5 5 5 5 5 6
4 4 5 5 6 6 6 6 7 7 7 7 8 7 7 7 7 6 6 6 6 6 6 5 5 5 5 4 4 4 4 4 4 4 4 4 3 4 5 5 5 5 6
3 4 4 5 5 5 6 6 6 6 7 7 7 7 7 7 7 6 6 6 6 5 5 6 5 5 4 3 3 4 4 4 4 4 4 4 2 2 3 4 4 5 6
2 3 3 4 4 4 5 6 6 6 7 7 7 6 7 7 7 7 6 6 6 6 6 6 5 5 4 4 4 4 4 4 4 4 4 4 3 3 4 3 4 4 5
2 2 2 2 3 4 4 4 5 5 6 6 6 6 6 6 6 6 6 6 6 6 5 5 5 5 4 6 6 6 5 5 4 4 4 4 4 4 4 4 4 5 4
1 1 1 2 2 3 3 4 5 5 5 5 5 5 5 5 6 6 6 6 6 5 5 5 5 5 4 5 7 6 5 5 5 5 5 5 4 2 3 4 4 5 5
0 0 1 1 2 2 3 4 4 4 5 4 4 4 5 5 6 6 5 4 5 5 5 5 5 5 4 5 6 7 5 5 5 4 4 3 3 2 3 4 4 5 5
1 0 1 1 1 2 3 4 4 4 4 4 4 4 5 5 6 5 5 4 4 4 5 4 4 4 4 5 6 6 5 4 4 4 4 2 3 3 4 5 4 4 6
1 1 1 1 1 2 3 3 4 4 4 4 4 4 5 5 4 4 5 5 5 5 5 4 4 3 4 4 6 6 5 4 4 4 3 2 4 3 4 3 3 5 6
2 1 1 1 1 2 2 3 3 3 4 4 4 4 4 3 3 4 4 4 5 4 4 4 4 3 3 3 5 7 5 4 4 3 0 1 3 3 4 3 4 5 4
2 2 2 2 2 2 2 2 3 3 3 3 3 3 3 3 3 3 3 3 3 3 4 4 4 3 3 3 3 3 3 4 3 2 3 5 5 5 3 3 4 4 4
3 3 3 3 2 2 2 2 2 3 3 3 3 3 3 2 3 2 1 2 2 2 3 3 3 4 4 3 2 3 3 2 2 2 2 2 2 2 3 3 3 4 3
3 3 4 3 2 2 2 2 2 3 4 3 3 3 3 3 3 2 1 3 1 2 1 2 2 2 1 3 3 2 2 2 3 3 3 3 3 4 3 3 3 3 3
Wind_Direction
187 185 187 186 184 183 183 185 187 179 180 182 186 178 175 180 179 181 172 193 198 183 207 208 176 206 167 183 174 185 174 174 161 195 196 188 201 211 222 230 237 221 222
189 187 190 189 189 187 188 186 187 185 187 184 187 190 189 197 189 189 177 196 194 198 196 207 220 199 193 192 201 208 243 181 172 275 277 225 183 200 199 209 220 239 228
196 192 193 194 192 190 191 192 189 186 190 185 186 184 184 199 190 194 194 198 205 206 213 206 222 222 224 190 202 206 219 233 224 269 294 302 357 313 173 205 228 246 252
198 195 193 196 197 193 190 191 189 188 186 186 193 195 200 203 202 205 196 202 209 217 212 212 214 228 230 201 214 188 220 233 234 211 256 302 330 298 267 208 198 217 238
196 195 194 194 197 194 190 187 187 189 188 190 193 201 208 208 204 203 197 222 211 216 215 214 211 213 219 212 241 233 237 236 256 257 244 248 241 255 281 290 291 262 246
194 194 193 191 194 193 191 187 185 190 190 191 194 200 207 209 209 210 207 212 204 203 208 208 207 210 210 205 221 233 231 240 257 268 263 256 262 268 276 282 280 291 293
192 190 190 190 191 192 192 189 185 189 190 192 196 198 204 206 209 219 215 221 215 201 187 207 209 214 209 215 222 224 237 237 239 248 260 263 267 279 283 284 293 297 290
189 189 188 188 189 190 189 188 186 191 192 193 196 200 203 210 214 218 228 218 227 206 179 194 196 209 216 217 217 229 227 227 234 242 253 265 266 267 270 278 289 291 289
184 185 184 186 186 187 187 187 186 189 192 192 192 197 202 212 218 215 223 225 220 207 187 195 198 204 211 221 223 230 234 230 237 241 237 255 265 264 268 266 269 280 289
180 181 179 181 181 182 181 183 184 186 188 189 193 191 197 203 211 217 217 225 222 213 199 203 207 214 216 216 222 223 221 227 233 244 262 266 270 273 267 269 274 272 277
179 177 174 174 173 175 177 179 182 185 187 190 190 194 192 195 199 205 208 208 209 203 208 209 213 218 217 214 216 227 222 228 235 239 240 252 272 277 277 275 272 272 273
172 168 167 165 169 173 176 177 180 185 188 188 188 192 192 195 200 205 207 203 204 206 205 208 211 216 216 219 223 232 230 230 232 238 243 253 254 260 272 275 274 274 276
160 160 160 161 165 170 174 176 180 183 185 185 188 192 196 198 204 209 207 204 204 209 212 215 218 222 222 222 225 230 232 232 234 237 242 249 256 262 271 274 277 277 276
160 162 161 161 163 168 173 178 182 183 183 186 190 195 199 201 204 206 205 206 207 208 210 212 215 219 222 222 220 217 224 230 234 242 248 250 255 261 267 267 272 278 279
154 159 165 162 166 168 173 181 184 183 186 191 197 198 198 199 204 205 206 205 209 213 211 213 213 212 216 222 216 216 220 226 233 242 252 255 267 297 284 282 280 279 276
145 149 158 159 169 177 182 183 186 184 187 197 203 198 198 200 204 205 206 207 211 217 216 217 215 216 225 179 189 217 212 219 230 238 250 252 237 247 247 271 284 290 279
131 138 154 159 168 176 180 184 186 187 191 198 203 201 202 205 204 206 206 208 210 213 216 216 217 220 220 166 179 209 215 223 233 238 247 257 255 252 265 248 234 249 253
144 148 160 165 168 169 175 180 183 185 191 198 203 206 208 206 204 206 209 210 210 215 219 219 220 222 214 180 188 204 216 229 231 233 240 248 258 263 272 273 281 281 278
181 181 179 173 165 169 174 177 187 190 194 201 205 205 207 207 207 211 212 212 210 213 218 221 222 221 210 188 192 205 217 223 226 229 233 238 243 259 277 267 276 285 290
216 187 184 174 171 180 184 186 192 198 203 204 205 204 206 207 206 209 209 206 206 212 221 221 219 217 211 182 185 206 220 222 226 225 226 221 229 212 233 249 261 274 287
242 213 221 212 203 203 198 201 202 209 211 207 206 208 211 213 211 206 205 204 207 211 219 217 214 205 197 180 182 208 228 231 236 242 241 225 170 203 234 255 263 275 279
254 247 248 251 244 220 204 205 213 216 210 207 210 216 216 219 212 207 209 209 208 207 211 208 211 205 192 189 194 203 223 253 238 248 251 218 165 209 232 251 277 275 273
280 279 271 261 245 235 217 217 225 222 211 209 211 212 212 214 211 210 212 213 210 216 218 213 216 214 206 194 184 187 195 218 233 246 167 164 186 220 228 224 244 256 268
269 274 273 267 267 252 234 227 224 213 212 216 216 207 204 204 202 210 218 221 222 226 227 226 226 219 210 209 207 195 182 185 207 212 166 181 202 226 244 241 250 261 272
258 262 268 275 274 258 242 236 223 206 212 216 221 219 213 197 195 205 229 226 241 244 240 237 233 225 225 214 184 201 205 214 197 198 210 217 216 234 246 252 260 270 270
258 257 261 268 274 270 267 263 236 207 209 207 211 224 220 203 204 191 177 47 55 99 96 359 276 248 209 157 164 167 150 147 166 197 217 228 231 237 245 250 251 256 266
Height
1517 1519 1521 1523 1525 1526 1527 1528 1530 1531 1532 1534 1535 1536 1537 1538 1540 1540 1541 1541 1542 1543 1543 1544 1544 1545 1546 1546 1546 1547 1547 1548 1548 1549 1549 1549 1549 1550 1550 1550 1550 1550 1550
1514 1517 1519 1521 1523 1524 1526 1527 1528 1530 1531 1533 1534 1536 1537 1538 1539 1540 1540 1541 1542 1542 1543 1543 1544 1544 1545 1545 1546 1546 1547 1548 1548 1549 1549 1549 1551 1549 1550 1549 1549 1549 1549
1510 1514 1516 1519 1521 1522 1524 1526 1527 1529 1531 1532 1534 1536 1537 1538 1539 1540 1540 1541 1541 1542 1542 1543 1543 1544 1545 1545 1545 1545 1546 1547 1548 1548 1549 1548 1548 1549 1549 1548 1548 1547 1547
1507 1510 1513 1516 1518 1520 1522 1524 1526 1527 1529 1531 1533 1535 1536 1537 1538 1539 1540 1540 1541 1541 1542 1542 1542 1543 1544 1544 1544 1545 1545 1546 1547 1547 1547 1548 1548 1548 1548 1548 1547 1546 1546
1503 1506 1509 1512 1515 1518 1520 1522 1524 1525 1527 1529 1531 1533 1535 1536 1537 1538 1539 1539 1540 1540 1541 1541 1541 1541 1542 1543 1543 1544 1544 1545 1546 1546 1547 1546 1546 1546 1546 1546 1546 1546 1545
1499 1503 1506 1510 1513 1515 1518 1520 1521 1523 1525 1527 1529 1530 1532 1534 1535 1536 1537 1538 1539 1539 1539 1540 1540 1540 1541 1541 1542 1542 1543 1543 1544 1544 1545 1545 1545 1545 1545 1544 1544 1543 1543
1496 1500 1503 1506 1509 1512 1515 1517 1519 1520 1523 1525 1527 1528 1530 1532 1533 1535 1536 1537 1538 1538 1538 1538 1538 1538 1539 1539 1540 1540 1541 1542 1542 1542 1543 1543 1543 1543 1543 1543 1542 1541 1541
1494 1497 1500 1503 1505 1508 1511 1514 1516 1518 1520 1522 1524 1527 1528 1531 1532 1533 1535 1535 1536 1536 1536 1536 1536 1537 1537 1538 1538 1539 1539 1539 1540 1541 1541 1541 1541 1541 1541 1541 1540 1539 1539
1491 1494 1497 1500 1503 1505 1508 1511 1513 1516 1518 1520 1522 1524 1526 1528 1530 1531 1532 1534 1534 1535 1534 1534 1535 1535 1535 1536 1536 1537 1537 1538 1538 1539 1539 1539 1540 1539 1539 1539 1538 1538 1537
1490 1492 1495 1497 1500 1503 1506 1509 1511 1513 1516 1518 1520 1522 1524 1526 1527 1529 1530 1531 1532 1532 1532 1533 1533 1533 1533 1534 1534 1535 1535 1536 1536 1536 1536 1536 1537 1537 1537 1537 1536 1536 1535
1488 1490 1493 1496 1499 1501 1504 1506 1509 1511 1513 1516 1518 1520 1522 1523 1525 1526 1528 1528 1529 1529 1530 1530 1530 1531 1531 1532 1532 1533 1533 1533 1534 1534 1534 1534 1534 1534 1535 1534 1534 1533 1532
1487 1489 1492 1494 1497 1499 1502 1504 1507 1509 1511 1513 1515 1517 1519 1521 1523 1524 1525 1526 1526 1527 1527 1528 1528 1528 1529 1529 1530 1530 1531 1531 1531 1532 1532 1532 1532 1531 1531 1531 1531 1530 1529
1486 1488 1490 1493 1495 1497 1500 1502 1505 1507 1509 1511 1513 1515 1517 1518 1520 1521 1522 1523 1523 1524 1525 1525 1525 1526 1526 1527 1527 1527 1528 1528 1528 1529 1529 1529 1529 1528 1528 1528 1528 1528 1527
1486 1487 1489 1491 1493 1496 1498 1500 1502 1505 1507 1509 1511 1512 1514 1515 1517 1518 1519 1520 1521 1521 1521 1522 1523 1523 1524 1524 1524 1524 1525 1525 1525 1526 1526 1526 1526 1526 1525 1525 1524 1524 1523
1485 1487 1488 1490 1492 1494 1496 1498 1500 1502 1504 1506 1508 1510 1511 1512 1514 1515 1516 1517 1518 1518 1519 1519 1519 1520 1521 1521 1521 1521 1522 1522 1522 1522 1523 1523 1523 1522 1522 1523 1522 1521 1520
1486 1487 1488 1489 1490 1492 1494 1495 1497 1499 1501 1503 1505 1507 1508 1509 1511 1512 1513 1514 1514 1515 1515 1516 1516 1516 1518 1518 1518 1518 1519 1519 1519 1519 1519 1520 1519 1519 1518 1518 1517 1517 1516
1485 1486 1487 1488 1489 1490 1491 1493 1494 1497 1499 1500 1502 1504 1505 1506 1507 1509 1510 1510 1511 1511 1511 1512 1512 1513 1514 1514 1515 1515 1515 1516 1516 1516 1516 1517 1517 1515 1515 1514 1513 1512 1511
1485 1486 1486 1487 1488 1489 1490 1491 1493 1494 1496 1497 1499 1500 1501 1503 1503 1504 1505 1506 1507 1507 1507 1508 1508 1509 1510 1510 1511 1512 1512 1512 1512 1512 1512 1512 1512 1511 1511 1510 1509 1508 1507
1484 1484 1485 1486 1487 1487 1489 1489 1491 1492 1493 1494 1495 1497 1498 1499 1500 1501 1501 1502 1503 1504 1504 1505 1505 1505 1506 1506 1507 1508 1508 1508 1508 1508 1508 1507 1507 1507 1506 1506 1505 1504 1503
1482 1483 1483 1484 1484 1485 1487 1487 1488 1489 1490 1491 1492 1493 1494 1495 1496 1497 1498 1498 1499 1500 1501 1501 1501 1501 1501 1502 1503 1503 1504 1504 1504 1504 1503 1503 1502 1502 1502 1501 1501 1499 1499
1480 1481 1481 1482 1482 1483 1483 1484 1485 1486 1487 1488 1489 1490 1491 1492 1493 1493 1494 1495 1495 1496 1497 1497 1498 1497 1497 1498 1498 1499 1500 1500 1500 1500 1499 1498 1498 1498 1497 1497 1496 1495 1495
1478 1479 1479 1479 1480 1480 1481 1481 1482 1483 1484 1485 1485 1486 1487 1489 1490 1490 1490 1491 1491 1492 1493 1493 1494 1494 1493 1493 1493 1494 1495 1495 1495 1495 1495 1494 1494 1494 1493 1493 1492 1492 1492
1476 1476 1476 1476 1477 1477 1478 1478 1479 1480 1480 1481 1482 1483 1484 1484 1485 1486 1486 1487 1488 1489 1489 1489 1490 1490 1490 1489 1490 1490 1490 1490 1491 1491 1490 1490 1489 1489 1490 1489 1488 1488 1488
1474 1474 1474 1474 1474 1474 1474 1475 1475 1476 1477 1478 1478 1479 1480 1480 1481 1482 1483 1483 1483 1484 1485 1485 1485 1486 1485 1485 1486 1485 1485 1486 1486 1486 1486 1486 1485 1486 1485 1485 1485 1485 1485
1472 1472 1472 1472 1472 1472 1472 1472 1473 1473 1474 1475 1476 1477 1477 1477 1478 1478 1479 1479 1479 1480 1481 1481 1481 1481 1481 1481 1481 1481 1481 1482 1482 1482 1483 1483 1483 1482 1482 1482 1482 1482 1481
1469 1470 1470 1470 1470 1469 1469 1470 1470 1471 1471 1471 1472 1474 1474 1474 1475 1475 1475 1475 1476 1476 1476 1477 1478 1477 1478 1477 1477 1477 1477 1478 1478 1479 1479 1479 1479 1480 1479 1479 1479 1478 1478